Location: La Tine
(46.4708°N, 7.0525°E)
Time: 17:24:52
(UTC+00:00)

SJ-6B - Pass Details

Date: 18 September 2020
Orbit: 511 x 580 km, 97.6° (Epoch: 30 October)

Event Time Altitude Azimuth Distance (km) Brightness Sun altitude
Exits shadow 19:22:17 28° 172° (S) 981 3.8 -18.5°
Maximum altitude 19:24:10 81° 257° (WSW) 524 2.7 -18.8°
Drops below altitude 10° 19:27:56 10° 345° (NNW) 1,753 5.9 -19.4°
Sets 19:30:03 0° 347° (NNW) 2,651 6.9 -19.7°
